Nenana, AK

1:03 PM AKDT on June 27, 2017 (GMT -0800)
Nenana Municipal

Weather History for PANN - November, 2012

Change the Weather History Date:

Tuesday, November 20, 2012

  Actual Average Record
Temperature  
Mean Temperature 12 °F -  
Max Temperature 45 °F 12 °F 57 °F (1949)
Min Temperature -20 °F -5 °F -34 °F (2011)
Degree Days  
Heating Degree Days 52    
Moisture  
Dew Point -11 °F    
Average Humidity 68    
Maximum Humidity 85    
Minimum Humidity 39    
Precipitation  
Precipitation 0.03 in - - ()
Sea Level Pressure  
Sea Level Pressure 29.93 in    
Wind  
Wind Speed 2 mph (ENE)    
Max Wind Speed 12 mph    
Max Gust Speed -    
Visibility 10 miles    
Events Rain    
Averages and records for this station are not official NWS values.
T = Trace of Precipitation, MM = Missing Value Source: NWS Daily Summary

Daily Weather History Graph

Daily Weather History Graph

Search for Another Location

Airport or City:

Trip Planner

Search our weather history database for the weather conditions in past years. The results will help you decide how hot, cold, wet, or windy it might be!

Date:

Astronomy

Nov. 20, 2012 Rise Set
Actual Time 9:47 AM AKST 3:35 PM AKST
Civil Twilight 8:42 AM AKST 4:40 PM AKST
Nautical Twilight 7:38 AM AKST 5:44 PM AKST
Astronomical Twilight 6:40 AM AKST 6:42 PM AKST
Moon 1:56 PM AKST (11/20) No Moon Set
Length of Visible Light 7h 58m
Length of Day
5h 47m
First Quarter, 53% of the Moon is Illuminated
Nov 20
First Quarter
Nov 28
Full
Dec 6
Last Quarter
Dec 12
New
Dec 19
First Quarter

Hourly Weather History & Observations

Time (AKST) Temp. Windchill Dew Point Humidity Pressure Visibility Wind Dir Wind Speed Gust Speed Precip Events Conditions
12:53 AM 1.0 °F -6.7 °F -14.1 °F 49% 30.01 in 10.0 mi NE 3.5 mph - N/A   Overcast
1:53 AM -0.9 °F -8.9 °F -14.1 °F 54% 30.01 in 10.0 mi ENE 3.5 mph - N/A   Scattered Clouds
3:53 AM -9.9 °F -19.2 °F -16.1 °F 74% 30.01 in 10.0 mi Variable 3.5 mph - N/A   Clear
4:53 AM -13.0 °F - -20.0 °F 71% 30.01 in 10.0 mi Calm Calm - N/A   Clear
5:53 AM -15.0 °F - -20.0 °F 78% 30.01 in 10.0 mi Calm Calm - N/A   Clear
6:53 AM -15.0 °F - -22.0 °F 71% 30.01 in 10.0 mi Calm Calm - N/A   Clear
7:53 AM -16.1 °F -28.6 °F -23.1 °F 71% 30.01 in 7.0 mi NNE 4.6 mph - N/A   Clear
8:53 AM -14.1 °F - -20.9 °F 71% 30.02 in 5.0 mi Calm Calm - N/A   Haze
9:53 AM -13.0 °F - -20.0 °F 71% 30.02 in 6.0 mi Calm Calm - N/A   Haze
10:53 AM -13.0 °F - -20.0 °F 71% 30.02 in 10.0 mi Calm Calm - N/A   Clear
11:53 AM -8.0 °F -16.9 °F -15.0 °F 71% 30.02 in 10.0 mi North 3.5 mph - N/A   Clear
12:53 PM -0.9 °F - -11.0 °F 62% 30.02 in 10.0 mi Calm Calm - N/A   Clear
1:53 PM 1.9 °F - -9.9 °F 58% 30.01 in 10.0 mi Calm Calm - N/A   Clear
2:53 PM -0.9 °F - -9.0 °F 69% 30.01 in 10.0 mi Calm Calm - N/A   Clear
3:53 PM -8.0 °F - -15.0 °F 71% 30.02 in 10.0 mi Calm Calm - N/A   Clear
4:53 PM -4.0 °F - -11.9 °F 69% 30.03 in 10.0 mi Calm Calm - N/A   Clear
5:53 PM -9.9 °F - -17.0 °F 71% 30.03 in 10.0 mi Calm Calm - N/A   Clear
6:53 PM -16.1 °F -26.2 °F -22.0 °F 74% 30.05 in 10.0 mi SE 3.5 mph - N/A   Clear
7:53 PM -17.0 °F - -23.1 °F 74% 30.05 in 10.0 mi Calm Calm - N/A   Clear
8:53 PM -18.0 °F -28.5 °F -23.1 °F 78% 30.06 in 10.0 mi South 3.5 mph - N/A   Clear
9:53 PM -20.0 °F - -25.1 °F 78% 30.07 in 10.0 mi Calm Calm - N/A   Clear
10:53 PM -20.0 °F - -27.0 °F 70% 30.08 in 10.0 mi Calm Calm - N/A   Clear
11:53 PM -20.9 °F - -27.9 °F 70% 30.09 in 10.0 mi Calm Calm - N/A   Clear